Location: Cisewo
(53.3833°N, 14.9000°E)
Time: 12:55:06
(UTC+00:00)

NOSS 2-1 (C) - Pass Details

Date: 18 April 2021
Orbit: 431 x 1771 km, 63.3° (Epoch: 13 May)

Event Time Altitude Azimuth Distance (km) Brightness Sun altitude
Exits shadow 23:11:59 37° 337° (NNW) 743 4.4 -25.4°
Drops below altitude 10° 23:15:27 10° 41° (NE) 1,782 6.6 -25.4°
Sets 23:18:01 0° 49° (NE) 2,835 7.6 -25.3°
